Location: Baix
(44.7118°N, 4.7648°E)
Time: 10:42:43
(UTC+00:00)

Vanguard 2 Rocket - Pass Details

Date: 30 November 2020
Orbit: 554 x 3325 km, 32.9° (Epoch: 21 January)

Event Time Altitude Azimuth Distance (km) Brightness Sun altitude
Rises 05:15:38 0° 207° (SSW) 6,607 11.2 -17.5°
Reaches altitude 10° 05:20:33 10° 198° (SSW) 5,878 11.0 -16.7°
Maximum altitude 05:36:02 32° 145° (SE) 4,693 11.0 -14.0°
Drops below altitude 10° 05:51:27 10° 92° (E) 5,895 12.3 -11.4°
Sets 05:56:17 0° 84° (E) 6,634 12.6 -10.6°
